[Iaude] MPEC L44: 2024 LS [a=3.37,e=0.72,i=22.1,H=20.8]

mpec at cfa.harvard.edu mpec at cfa.harvard.edu
Tue Jun 4 09:59:53 EDT 2024


M.P.E.C. 2024-L44                                  Issued 2024 June 4, 13:58 UT

     The Minor Planet Electronic Circulars contain information on unusual
         minor planets, routine data on comets and natural satellites,
         and occasional editorial announcements.  They are published
    on behalf of Division F of the International Astronomical Union by the
          Minor Planet Center, Smithsonian Astrophysical Observatory,
                          Cambridge, MA 02138, U.S.A.
			  
             Prepared using the Tamkin Foundation Computer Network

                              MPC at CFA.HARVARD.EDU
            URL https://www.minorplanetcenter.net/    ISSN 1523-6714

                                    2024 LS                                     


Observations:
     K24L00S  C2024 05 31.57485920 09 33.878+00 26 55.02         20.21GVEL044F51
     K24L00S  C2024 05 31.58542520 09 36.558+00 28 00.58         21.18GVEL044F51
     K24L00S* C2024 06 03.49779520 22 51.228+05 43 31.39         20.90wXEL044F52
     K24L00S  C2024 06 03.51533820 22 56.062+05 45 31.48         20.92wXEL044F52
     K24L00S  C2024 06 03.52407920 22 58.428+05 46 30.49         20.60wXEL044F52
     K24L00S  C2024 06 03.57027420 23 11.110+05 51 46.19         20.15GVEL044F52
     K24L00S KC2024 06 03.64788320 23 33.264+06 01 03.25         20.5 GVEL044474
     K24L00S KC2024 06 03.65533120 23 35.371+06 01 54.73         20.7 GVEL044474
     K24L00S KC2024 06 03.65781320 23 36.082+06 02 11.76         20.3 GVEL044474
     K24L00S KC2024 06 03.66029620 23 36.746+06 02 29.08         20.9 GVEL044474
     K24L00S KB2024 06 04.02818620 25 23.09 +06 44 01.7          19.0 GXEL044I93
     K24L00S KB2024 06 04.04219620 25 27.06 +06 45 38.9          19.4 GXEL044I93

Observer details:
474 Mount John Observatory, Lake Tekapo.  Observers A. C. Gilmore, P. M.
    Kilmartin.  Measurer P. M. Kilmartin.  1.0-m f/7.7 Reflector + CCD.
F51 Pan-STARRS 1, Haleakala.  Observers J. Herman, T. Lowe, P. Minguez, A.
    Schultz, I. Smith.  Measurers K. Chambers, T. de Boer, J. Fairlamb, H.
    Gao, M. Huber, C.-C. Lin, E. Magnier, Y. Ramanjooloo, R. Wainscoat, R.
    Weryk.  1.8-m Ritchey-Chretien + CCD.
F52 Pan-STARRS 2, Haleakala.  Observers J. Herman, T. Lowe, P. Minguez, A.
    Schultz, I. Smith.  Measurers K. Chambers, T. de Boer, J. Fairlamb, H.
    Gao, M. Huber, C.-C. Lin, E. Magnier, Y. Ramanjooloo, R. Wainscoat, R.
    Weryk.  1.8-m Ritchey-Chretien + CCD.
I93 St Pardon de Conques.  Observer F. Losse.  0.40-m f/3.7 reflector + CMO.

Orbital elements:
2024 LS                                                  Earth MOID = 0.2128 AU
Epoch 2024 Mar. 31.0 TT = JDT 2460400.5                 MPC                     
M 341.38395              (2000.0)            P               Q                  
n   0.15934207     Peri.   79.02437     +0.78028229     +0.51787892             
a   3.3696316      Node   248.90921     -0.61009511     +0.75364985             
e   0.7195169      Incl.   22.07590     +0.13763537     +0.40473859             
P   6.19           H   20.87          G   0.15           U   9                  
Residuals in seconds of arc
240531 F51  0.2-  0.2-    240603 F52  0.2-  0.3-    240603 474  0.3+  0.0
240531 F51  0.2+  0.2+    240603 F52  0.1+  0.1+    240603 474  0.0   0.4+
240603 F52  0.1+  0.2-    240603 474  0.7-  0.5-    240604 I93  0.5+  0.3-
240603 F52  0.3+  0.3+    240603 474  0.0   0.0     240604 I93  0.7+  0.1-

Ephemeris:
2024 LS                  a,e,i = 3.37, 0.72, 22                  q = 0.9451
Date    TT    R. A. (2000) Decl.     Delta      r    Elong.  Phase     V
2024 05 05    18 42 18.8 -25 59 56   0.6541  1.4844   125.1    33.8    22.2
...
2024 05 20    19 25 49.4 -15 12 39   0.4566  1.3422   128.0    36.4    21.3
...
2024 05 28    19 54 42.0 -05 16 10   0.3754  1.2692   125.6    40.5    20.9
...
2024 06 03    20 20 29.8 +04 47 29   0.3305  1.2166   120.7    45.8    20.6
2024 06 04    20 25 13.8 +06 40 59   0.3246  1.2080   119.6    46.9    20.6
2024 06 05    20 30 06.2 +08 37 44   0.3192  1.1996   118.3    48.1    20.6
...
2024 06 11    21 02 39.5 +21 06 41   0.2985  1.1503   109.6    56.3    20.6
...
2024 06 19    21 56 38.5 +37 32 01   0.3016  1.0900    96.1    68.0    20.8
...
2024 07 04    00 10 35.3 +56 31 15   0.3780  0.9996    76.7    81.8    21.6

A. U. Tomatic                (C) Copyright 2024 MPC           M.P.E.C. 2024-L44





More information about the Iaude mailing list